Find Starlink 2417

NORAD ID: 48096 Int'l Des: 2021-027 Owner: SPXS Country: US Constellation: starlink operational
LEOCIRCULAR

实时位置

正在加载3D地球...

关于 Starlink 2417

正在加载描述...

即将过境

Passes for default location (London). Set your location on the main map for personalized predictions.

高度历史

Loading altitude history...

两行轨道根数

1 48096U 21027E 26123.83830228 .00001662 00000-0 65338-4 0 9991
2 48096 53.1591 269.2089 0001268 87.5228 272.5918 15.31692843280958
Epoch: May 3, 2026 • Age: 10 hours

当前状态

高度 470.9 km
速度 7.63 km/s
星下点 6.43°N, 126.33°E
发射日期 Apr 7, 2021
运行时间 5 years
类型 internet

技术详情

分类 Payload
质量 260.00 kg
干质量 248.00 kg
总质量 260.00 kg
长度 0.20 m
直径 2.80 m
跨度 9.00 m
形状 Box + pan
制造商 SPXS
平台类型 Starlink
阶段状态 In Orbit
所有者/国家 SPXS/US

Most Searched